Location: *
(45.9500°N, 9.0833°E)
Time: 14:34:55
(UTC+00:00)

Cosmos 2278 Rocket - Pass Details

Date: 03 March 2021
Orbit: 841 x 845 km, 71.0° (Epoch: 14 April)

Event Time Altitude Azimuth Distance (km) Brightness Sun altitude
Rises 18:40:23 0° 340° (NNW) 3,415 5.7 -15.9°
Reaches altitude 10° 18:43:24 10° 355° (N) 2,476 4.8 -16.5°
Maximum altitude 18:47:48 22° 46° (NE) 1,753 3.5 -17.2°
Enters shadow 18:48:50 21° 62° (ENE) 1,799 3.5 -17.4°
